9P/Tempel 1 (2011)

Japanese version
Home page
Updated on December 7, 2011

---------------------------------------------------------------------

* Profile

* Pictures

* Orbital Elements

Epoch 2010 Dec. 30.0 TT = JDT 2455560.5
T 2011 Jan. 12.36555 TT                                 MPC
q   1.5103004            (2000.0)            P               Q
n   0.17850666     Peri.  178.92321     -0.37705512     +0.91038390
a   3.1239190      Node    68.90716     -0.85112274     -0.26803131
e   0.5165367      Incl.   10.52237     -0.36526636     -0.31521481
P   5.52
From 5319 observations 1967 June 8-2011 Aug. 8, mean residual 0".6.
     Nongravitational parameters A1 = +0.02, A2 = +0.0016.

* Finding Charts

* Magnitudes Graph

        m1 = 14.0 + 5 log d +  7.5 log r  [    ,-290]  (             - 2010 Mar. 28)
        m1 =  6.0 + 5 log d + 25   log r  [-290, 195]  (2010 Mar. 28 - 2011 July 26)
        m1 = 11.5 + 5 log d + 10.0 log r  [ 195,    ]  (2011 July 26 -             )

---------------------------------------------------------------------

The orbital elements are published on M.P.E.C. 2011-P44.
The charts are made with StellaNavigator Ver.2.0 for Windows (AstroArts / ASCII).
The magnitudes graphs are made with Comet for Windows.

---------------------------------------------------------------------

Copyright(C) Seiichi Yoshida (comet@aerith.net). All rights reserved.